Weather History for Yuma MCAS, AZ

Change the Weather History Date:

Thursday, April 25, 2013

  Actual Average Record
Temperature  
Mean Temperature 73 °F 75 °F  
Max Temperature 83 °F 89 °F 107 °F (1898)
Min Temperature 62 °F 62 °F 44 °F (1883)
Degree Days  
Heating Degree Days 0 0  
Month to date heating degree days 0 12  
Since 1 July heating degree days 705 685  
Cooling Degree Days 8 11  
Month to date cooling degree days 223 195  
Year to date cooling degree days 432 348  
Growing Degree Days 22 (Base 50)    
Moisture  
Dew Point 40 °F    
Average Humidity 35    
Maximum Humidity 52    
Minimum Humidity 18    
Precipitation  
Precipitation 0.00 in 0.01 in 0.11 in (2011)
Month to date precipitation T 0.14  
Year to date precipitation 1.11 1.23  
Sea Level Pressure  
Sea Level Pressure 29.89 in    
Wind  
Wind Speed 9 mph (SW)    
Max Wind Speed 17 mph    
Max Gust Speed 22 mph    
Visibility 10 miles    
Events      
T = Trace of Precipitation, MM = Missing Value Source: NWS Daily Summary

Daily Weather History Graph

Daily Weather History Graph

Search for Another Location

Airport:

Trip Planner

Search our weather history database for the weather conditions in past years. The results will help you decide how hot, cold, wet, or windy it might be!

Date:

Astronomy

Apr. 25, 2013 Rise Set
Actual Time 5:57 AM MST 7:15 PM MST
Civil Twilight 5:31 AM MST 7:41 PM MST
Nautical Twilight 5:00 AM MST 8:12 PM MST
Astronomical Twilight 4:28 AM MST 8:44 PM MST
Moon 7:31 PM MST (4/25) 5:43 AM MST (4/25)
Length of Visible Light 14h 10m
Length of Day
13h 18m
Full, 100% of the Moon is Illuminated
Apr 25
Full
Apr 25
Full
May 2
Last Quarter
May 9
New
May 17
First Quarter

Hourly Weather History & Observations

Time (MST) Temp. Dew Point Humidity Pressure Visibility Wind Dir Wind Speed Gust Speed Precip Events Conditions
12:55 AM 69.1 °F 44.1 °F 40% 29.76 in 10.0 mi SE 10.4 mph - N/A   Clear
1:55 AM 66.9 °F 45.0 °F 45% 29.78 in 10.0 mi SSE 9.2 mph - N/A   Clear
2:55 AM 64.9 °F 46.0 °F 50% 29.80 in 10.0 mi SW 8.1 mph - N/A   Clear
3:55 AM 64.0 °F 41.0 °F 43% 29.82 in 10.0 mi North 8.1 mph - N/A   Clear
4:55 AM 63.0 °F 41.0 °F 45% 29.83 in 10.0 mi North 8.1 mph - N/A   Clear
5:55 AM 62.1 °F 37.9 °F 41% 29.84 in 10.0 mi NNW 6.9 mph - N/A   Partly Cloudy
6:55 AM 63.0 °F 37.9 °F 40% 29.88 in 10.0 mi WNW 6.9 mph - N/A   Partly Cloudy
7:55 AM 64.0 °F 37.9 °F 38% 29.89 in 10.0 mi West 5.8 mph - N/A   Partly Cloudy
8:55 AM 66.9 °F 37.9 °F 34% 29.92 in 10.0 mi West 8.1 mph - N/A   Clear
9:55 AM 71.1 °F 39.0 °F 31% 29.94 in 10.0 mi WSW 9.2 mph - N/A   Clear
10:55 AM 75.9 °F 37.9 °F 25% 29.94 in 10.0 mi WNW 15.0 mph - N/A   Clear
11:55 AM 77.0 °F 39.0 °F 25% 29.94 in 10.0 mi West 8.1 mph - N/A   Clear
12:55 PM 79.0 °F 37.9 °F 23% 29.93 in 10.0 mi WSW 11.5 mph 17.3 mph N/A   Clear
1:55 PM 81.0 °F 37.9 °F 21% 29.93 in 10.0 mi SW 9.2 mph - N/A   Clear
2:55 PM 81.0 °F 37.9 °F 21% 29.91 in 10.0 mi Variable 6.9 mph - N/A   Clear
3:55 PM 82.0 °F 37.9 °F 21% 29.88 in 10.0 mi SW 8.1 mph 17.3 mph N/A   Clear
4:55 PM 82.9 °F 37.0 °F 19% 29.88 in 10.0 mi SSW 9.2 mph - N/A   Clear
5:55 PM 82.9 °F 36.0 °F 19% 29.88 in 10.0 mi SW 10.4 mph - N/A   Clear
6:55 PM 80.1 °F 39.0 °F 23% 29.89 in 10.0 mi South 6.9 mph - N/A   Clear
7:55 PM 78.1 °F 37.9 °F 24% 29.90 in 10.0 mi South 9.2 mph - N/A   Clear
8:55 PM 73.9 °F 39.0 °F 28% 29.93 in 10.0 mi South 8.1 mph - N/A   Clear
9:55 PM 71.1 °F 43.0 °F 36% 29.96 in 10.0 mi South 8.1 mph - N/A   Clear
10:55 PM 68.0 °F 46.9 °F 47% 29.96 in 10.0 mi South 5.8 mph - N/A   Clear
11:55 PM 68.0 °F 46.0 °F 45% 29.98 in 10.0 mi South 8.1 mph - N/A   Clear